Regional Weather Roundup
Issued by NWS Sioux Falls, SD

Home | Current Version | Previous Version | Text Only | Print | Product List | Glossary Off
Versions: 1 2 3 4 5 6 7 8 9 10 11 12 13 14 15 16 17 18 19 20 21 22 23 24 25 26 27 28 29 30 31 32 33 34 35 36 37 38 39 40 41 42 43 44 45 46 47 48 49 50

000
ASUS43 KFSD 280902
RWRFSD

WEATHER ROUNDUP FOR SE SOUTH DAKOTA/SW MINNESOTA/NW IOWA
NATIONAL WEATHER SERVICE SIOUX FALLS SD
400 AM CDT TUE MAR 28 2017

NOTE: "FAIR" INDICATES FEW OR NO CLOUDS BELOW 12,000 FEET WITH NO
SIGNIFICANT WEATHER AND OR OBSTRUCTIONS TO VISIBILITY.


SDZ038>040-050-052>070-281000-
SOUTHEAST SOUTH DAKOTA

CITY           SKY/WX    TMP DP  RH WIND       PRES   REMARKS
BROOKINGS      PTCLDY    37  35  92 CALM      30.05S
CHAMBERLAIN    CLOUDY    46  41  84 E8        30.00F
HURON          PTCLDY    38  37  97 S7        30.03F
MADISON        PTSUNNY   37  37 100 S5        30.05R
MITCHELL       CLEAR     36  35  96 SE5       30.05R
SIOUX FALLS    CLEAR     33  32  96 NE3       30.05F FOG
WINNER         CLOUDY    47  39  74 E7        29.99S
YANKTON        CLOUDY    43  37  81 S6        30.05R
$$

MNZ071-072-080-081-089-090-097-098-281000-
SOUTHWEST MINNESOTA

CITY           SKY/WX    TMP DP  RH WIND       PRES   REMARKS
FAIRMONT       MOCLDY    36  34  92 NW3       30.06F
JACKSON        CLOUDY    36  34  93 NW3       30.06F
LUVERNE        PTCLDY    34  32  93 NE3       30.05F
MARSHALL       CLOUDY    40  36  86 CALM      30.06S
MONTEVIDEO     CLOUDY    37  34  87 E5        30.08S
PIPESTONE      CLEAR     37  34  87 CALM      30.05S FOG
REDWOOD FALLS  CLOUDY    40  33  76 CALM      30.06S
TRACY          CLOUDY    43  39  88 SW6       30.06S
WINDOM         CLOUDY    36  36 100 W3        30.05F
WORTHINGTON    MOCLDY    35  34  96 CALM      30.06S
$$

IAZ001>003-012>014-020>022-031-032-NEZ013-014-SDZ071-281000-
NORTHWEST IOWA

CITY           SKY/WX    TMP DP  RH WIND       PRES   REMARKS
CHEROKEE       CLEAR     32  32 100 CALM      30.06S
DENISON        CLOUDY    41  39  93 CALM      30.05F
ESTHERVILLE    CLEAR     34  34 100 NW7       30.05S WCI  28
LE MARS        CLEAR     30  32 100 CALM      30.07S FOG
ORANGE CITY    CLEAR     37  37 100 CALM      30.05S
SHELDON        CLOUDY    32  32 100 NE5       30.04F WCI  27
SIOUX CITY     FOG       32  32 100 CALM      30.06S VSB 1/2
SPENCER        CLEAR     31  31 100 CALM      30.06S
STORM LAKE     CLEAR     41  39  93 NW5       30.05S
$$

ABBREVIATIONS USED IN REMARKS
   TC - TEMPERATURE IN CELSIUS
  WCI - WIND CHILL INDEX
   HX - HEAT INDEX
  VSB - VISIBILITY




USA.gov is the U.S. government's official web portal to all federal, state and local government web resources and services.